RCF814 UEEE-UUEE

Flight info

Callsign RCF814
Flight time N/A
Altitude 32000
Route NIBES6F NIBES W19 STINA/K0891F340 W19 PLR M130 BI T791 NEGER/K0913F360 T791 ARKUK T818 USINA T187 GONIB T791 KTL T187 ROMTA ROMTA3F
Aircraft MD11/H-SDE1E2E3FGHIJ2J3J4J5M1RWXY/LB1D1

Departure

Time 2026-05-06 17:15
Airport Platon Oyunsky Yakutsk International Airport (UEEE)

Arrival

Time N/A
Airport Sheremetyevo International Airport (UUEE)
Time Latitude Longitude Altitude Speed Heading
2026-05-06 16:40 62.09922 129.76631 339 ft 0 kts 124°
2026-05-06 17:07 62.09920 129.76638 339 ft 2 kts 124°
2026-05-06 17:07 62.09908 129.76674 335 ft 4 kts 124°
2026-05-06 17:07 62.09903 129.76711 335 ft 1 kts 97°
2026-05-06 17:08 62.09904 129.76728 335 ft 1 kts 81°
2026-05-06 17:08 62.09907 129.76739 336 ft 1 kts 66°
2026-05-06 17:08 62.09913 129.76753 337 ft 2 kts 51°
2026-05-06 17:08 62.09925 129.76774 336 ft 3 kts 39°
2026-05-06 17:09 62.09947 129.76809 337 ft 6 kts 36°
2026-05-06 17:09 62.09990 129.76872 334 ft 9 kts 34°
2026-05-06 17:09 62.10051 129.76958 336 ft 12 kts 33°
2026-05-06 17:09 62.10111 129.77077 336 ft 11 kts 56°
2026-05-06 17:10 62.10153 129.77233 333 ft 13 kts 62°
2026-05-06 17:10 62.10200 129.77418 337 ft 12 kts 62°
2026-05-06 17:10 62.10232 129.77548 337 ft 8 kts 63°
2026-05-06 17:10 62.10235 129.77610 334 ft 3 kts 95°
2026-05-06 17:11 62.10231 129.77636 333 ft 2 kts 107°
2026-05-06 17:11 62.10223 129.77667 336 ft 5 kts 118°
2026-05-06 17:11 62.10197 129.77761 335 ft 10 kts 120°
2026-05-06 17:11 62.10157 129.77883 336 ft 11 kts 126°
2026-05-06 17:12 62.10105 129.78033 337 ft 14 kts 127°
2026-05-06 17:12 62.10053 129.78179 334 ft 12 kts 127°
2026-05-06 17:12 62.10001 129.78327 333 ft 13 kts 127°
2026-05-06 17:12 62.09960 129.78433 333 ft 6 kts 139°
2026-05-06 17:13 62.09938 129.78449 332 ft 2 kts 170°
2026-05-06 17:13 62.09932 129.78447 333 ft 1 kts 184°
2026-05-06 17:13 62.09921 129.78440 331 ft 2 kts 195°
2026-05-06 17:13 62.09905 129.78422 333 ft 3 kts 210°
2026-05-06 17:14 62.09865 129.78358 333 ft 25 kts 218°
2026-05-06 17:14 62.09518 129.77799 333 ft 100 kts 217°
2026-05-06 17:14 62.08782 129.76621 339 ft 161 kts 217°
2026-05-06 17:14 62.07817 129.75064 620 ft 180 kts 218°
2026-05-06 17:15 62.06817 129.73475 1435 ft 175 kts 219°
2026-05-06 17:15 62.05838 129.71962 2214 ft 175 kts 218°
2026-05-06 17:15 62.04830 129.70435 2811 ft 182 kts 218°
2026-05-06 17:15 62.03760 129.68843 3268 ft 195 kts 218°
2026-05-06 17:16 62.02645 129.67142 3813 ft 196 kts 219°
2026-05-06 17:16 62.01544 129.65383 4299 ft 206 kts 221°
2026-05-06 17:16 62.00382 129.63450 4655 ft 214 kts 221°
2026-05-06 17:16 61.99213 129.61461 5117 ft 215 kts 225°
2026-05-06 17:17 61.98239 129.59037 5443 ft 223 kts 243°
2026-05-06 17:17 61.97724 129.55826 5600 ft 238 kts 267°
2026-05-06 17:17 61.97923 129.52304 5750 ft 254 kts 292°
2026-05-06 17:17 61.98959 129.49053 6080 ft 271 kts 315°
2026-05-06 17:18 62.00355 129.46392 6844 ft 275 kts 319°
2026-05-06 17:18 62.01839 129.43776 7647 ft 278 kts 320°
2026-05-06 17:18 62.03345 129.41142 8442 ft 282 kts 320°
2026-05-06 17:18 62.04866 129.38470 9220 ft 285 kts 320°
2026-05-06 17:19 62.06405 129.35751 9959 ft 288 kts 320°
2026-05-06 17:19 62.08001 129.32917 10202 ft 311 kts 320°
2026-05-06 17:19 62.09726 129.29842 10351 ft 334 kts 319°
2026-05-06 17:19 62.11526 129.26623 10978 ft 339 kts 320°
2026-05-06 17:20 62.13347 129.23361 11701 ft 343 kts 320°
2026-05-06 17:20 62.15182 129.20066 12407 ft 347 kts 320°
2026-05-06 17:20 62.17040 129.16727 13106 ft 350 kts 320°
2026-05-06 17:20 62.19068 129.13818 13727 ft 354 kts 332°
2026-05-06 17:21 62.21297 129.11666 14296 ft 357 kts 338°
2026-05-06 17:21 62.23632 129.09774 14894 ft 360 kts 339°
2026-05-06 17:21 62.25998 129.07953 15473 ft 363 kts 339°
2026-05-06 17:21 62.28383 129.06121 16065 ft 365 kts 339°
2026-05-06 17:22 62.30784 129.04256 16628 ft 368 kts 339°
2026-05-06 17:22 62.33202 129.02347 17194 ft 370 kts 338°
2026-05-06 17:22 62.35539 128.99975 17699 ft 372 kts 327°
2026-05-06 17:22 62.37527 128.96369 18207 ft 375 kts 313°
2026-05-06 17:23 62.39171 128.91966 18634 ft 379 kts 307°
2026-05-06 17:23 62.40668 128.87356 19088 ft 381 kts 306°
2026-05-06 17:23 62.42164 128.82607 19550 ft 383 kts 306°
2026-05-06 17:23 62.43675 128.77847 19981 ft 385 kts 306°
2026-05-06 17:24 62.45209 128.73087 20421 ft 387 kts 306°
2026-05-06 17:24 62.46770 128.68302 20875 ft 390 kts 307°
2026-05-06 17:24 62.48348 128.63499 21321 ft 392 kts 307°
2026-05-06 17:24 62.49935 128.58682 21777 ft 394 kts 307°
2026-05-06 17:25 62.51533 128.53836 22232 ft 396 kts 307°
2026-05-06 17:25 62.53120 128.49017 22673 ft 399 kts 307°
2026-05-06 17:25 62.54738 128.44095 23139 ft 401 kts 307°
2026-05-06 17:25 62.56361 128.39150 23568 ft 404 kts 307°
2026-05-06 17:26 62.57992 128.34166 23964 ft 406 kts 307°
2026-05-06 17:26 62.59633 128.29145 24376 ft 408 kts 307°
2026-05-06 17:26 62.61278 128.24095 24780 ft 411 kts 307°
2026-05-06 17:26 62.62932 128.19008 25190 ft 413 kts 307°
2026-05-06 17:27 62.64594 128.13885 25589 ft 416 kts 307°
2026-05-06 17:27 62.66263 128.08729 25998 ft 418 kts 307°
2026-05-06 17:27 62.67935 128.03549 26405 ft 420 kts 307°
2026-05-06 17:27 62.69620 127.98320 26792 ft 423 kts 307°
2026-05-06 17:28 62.71316 127.93045 27177 ft 425 kts 307°
2026-05-06 17:28 62.72996 127.87808 27549 ft 428 kts 307°
2026-05-06 17:28 62.74702 127.82475 27934 ft 430 kts 306°
2026-05-06 17:28 62.76418 127.77101 28315 ft 432 kts 306°
2026-05-06 17:29 62.78143 127.71685 28682 ft 435 kts 306°
2026-05-06 17:29 62.79870 127.66249 29046 ft 437 kts 306°
2026-05-06 17:29 62.81608 127.60765 29390 ft 439 kts 306°
2026-05-06 17:29 62.83351 127.55251 29733 ft 442 kts 306°
2026-05-06 17:30 62.85098 127.49690 30017 ft 444 kts 306°
2026-05-06 17:30 62.86832 127.44065 30299 ft 446 kts 305°
2026-05-06 17:30 62.88542 127.38492 30615 ft 445 kts 305°
2026-05-06 17:30 62.90278 127.32859 30945 ft 445 kts 305°
2026-05-06 17:31 62.92024 127.27223 31268 ft 445 kts 306°
2026-05-06 17:31 62.93769 127.21605 31582 ft 445 kts 306°
2026-05-06 17:31 62.95518 127.15980 31736 ft 446 kts 305°
2026-05-06 17:32 62.99029 127.04662 31771 ft 448 kts 305°
2026-05-06 17:32 63.02510 126.93385 31777 ft 448 kts 305°
2026-05-06 17:33 63.06000 126.82022 31776 ft 448 kts 305°
2026-05-06 17:33 63.09478 126.70640 31769 ft 447 kts 305°
2026-05-06 17:34 63.12952 126.59212 31765 ft 447 kts 304°
2026-05-06 17:34 63.16408 126.47788 31765 ft 447 kts 304°
2026-05-06 17:35 63.19852 126.36344 31767 ft 447 kts 304°
2026-05-06 17:35 63.23290 126.24864 31767 ft 446 kts 304°
2026-05-06 17:36 63.28425 126.07607 31766 ft 446 kts 303°
2026-05-06 17:36 63.31810 125.96158 31764 ft 446 kts 303°
2026-05-06 17:37 63.35188 125.84551 31761 ft 446 kts 303°
2026-05-06 17:37 63.38527 125.72903 31758 ft 445 kts 303°
2026-05-06 17:38 63.41884 125.61283 31758 ft 445 kts 303°
2026-05-06 17:38 63.45250 125.49651 31755 ft 445 kts 303°
2026-05-06 17:39 63.48605 125.38014 31756 ft 445 kts 302°
2026-05-06 17:39 63.51932 125.26413 31758 ft 445 kts 302°
2026-05-06 17:40 63.55265 125.14728 31748 ft 445 kts 302°
2026-05-06 17:40 63.58596 125.02990 31755 ft 444 kts 302°
2026-05-06 17:41 63.61909 124.91254 31753 ft 444 kts 302°
2026-05-06 17:41 63.65191 124.79459 31754 ft 444 kts 301°
2026-05-06 17:42 63.68429 124.67710 31748 ft 444 kts 301°
2026-05-06 17:42 63.71699 124.55885 31751 ft 444 kts 301°
2026-05-06 17:43 63.74969 124.44052 31748 ft 443 kts 301°
2026-05-06 17:43 63.78208 124.32278 31740 ft 443 kts 301°
2026-05-06 17:44 63.81462 124.20386 31749 ft 443 kts 301°
2026-05-06 17:44 63.84151 124.10508 31747 ft 443 kts 300°
2026-05-06 17:45 63.87379 123.98595 31745 ft 443 kts 300°
2026-05-06 17:45 63.91117 123.84719 31737 ft 442 kts 300°
2026-05-06 17:46 63.93777 123.74791 31740 ft 442 kts 300°
2026-05-06 17:46 63.96963 123.62841 31743 ft 442 kts 300°
2026-05-06 17:47 64.00147 123.50833 31744 ft 441 kts 300°
2026-05-06 17:47 64.03315 123.38823 31728 ft 441 kts 299°
2026-05-06 17:48 64.06441 123.26905 31732 ft 440 kts 299°
2026-05-06 17:48 64.09528 123.14801 31739 ft 440 kts 298°
2026-05-06 17:49 64.12610 123.02716 31738 ft 439 kts 298°
2026-05-06 17:49 64.15696 122.90706 31739 ft 439 kts 298°
2026-05-06 17:50 64.18785 122.78615 31737 ft 438 kts 298°
2026-05-06 17:50 64.21856 122.66527 31737 ft 437 kts 298°
2026-05-06 17:51 64.24915 122.54455 31734 ft 437 kts 298°
2026-05-06 17:51 64.27945 122.42447 31734 ft 436 kts 298°
2026-05-06 17:52 64.30997 122.30363 31731 ft 436 kts 298°
2026-05-06 17:52 64.34081 122.18283 31734 ft 436 kts 298°
2026-05-06 17:53 64.37162 122.06218 31733 ft 436 kts 298°
2026-05-06 17:53 64.40230 121.94133 31735 ft 436 kts 298°
2026-05-06 17:54 64.43301 121.82003 31734 ft 436 kts 298°
2026-05-06 17:54 64.46338 121.69953 31734 ft 435 kts 298°
2026-05-06 17:55 64.49391 121.57778 31735 ft 435 kts 298°
2026-05-06 17:55 64.52409 121.45678 31735 ft 435 kts 298°
2026-05-06 17:56 64.55431 121.33494 31734 ft 435 kts 298°
2026-05-06 17:56 64.58442 121.21288 31733 ft 435 kts 297°
2026-05-06 17:57 64.61397 121.09094 31735 ft 434 kts 297°
2026-05-06 17:57 64.64359 120.96822 31736 ft 434 kts 297°
2026-05-06 17:58 64.67328 120.84548 31739 ft 434 kts 297°
2026-05-06 17:58 64.70292 120.72259 31740 ft 433 kts 297°
2026-05-06 17:59 64.73239 120.59980 31741 ft 433 kts 297°
2026-05-06 17:59 64.76177 120.47670 31739 ft 432 kts 297°
2026-05-06 18:00 64.79097 120.35361 31741 ft 431 kts 297°
2026-05-06 18:00 64.81983 120.23128 31742 ft 431 kts 297°
2026-05-06 18:01 64.84877 120.10793 31742 ft 430 kts 297°
2026-05-06 18:01 64.87760 119.98435 31745 ft 430 kts 297°
2026-05-06 18:02 64.90584 119.86133 31747 ft 429 kts 296°
2026-05-06 18:02 64.93388 119.73721 31746 ft 428 kts 296°
2026-05-06 18:03 64.96207 119.61322 31754 ft 427 kts 296°
2026-05-06 18:03 64.99003 119.49032 31760 ft 427 kts 296°
2026-05-06 18:04 65.01811 119.36637 31760 ft 427 kts 296°
2026-05-06 18:04 65.04609 119.24214 31754 ft 426 kts 296°
2026-05-06 18:05 65.07388 119.11802 31761 ft 426 kts 296°
2026-05-06 18:05 65.10134 118.99468 31762 ft 425 kts 296°
2026-05-06 18:06 65.12887 118.87030 31765 ft 425 kts 296°
2026-05-06 18:06 65.15627 118.74579 31767 ft 424 kts 296°
2026-05-06 18:07 65.18351 118.62125 31766 ft 423 kts 295°
2026-05-06 18:07 65.21045 118.49740 31769 ft 423 kts 295°
2026-05-06 18:08 65.23698 118.37215 31772 ft 423 kts 295°
2026-05-06 18:08 65.26341 118.24686 31775 ft 422 kts 295°
2026-05-06 18:09 65.29004 118.12154 31775 ft 422 kts 295°
2026-05-06 18:09 65.31646 117.99718 31776 ft 421 kts 295°
2026-05-06 18:10 65.34290 117.87206 31777 ft 421 kts 295°
2026-05-06 18:10 65.36927 117.74651 31779 ft 421 kts 295°
2026-05-06 18:11 65.39550 117.62085 31776 ft 421 kts 295°
2026-05-06 18:11 65.42146 117.49577 31783 ft 421 kts 294°
2026-05-06 18:12 65.44745 117.36973 31783 ft 421 kts 294°
2026-05-06 18:12 65.47337 117.24335 31786 ft 421 kts 294°
2026-05-06 18:13 65.49882 117.11644 31785 ft 421 kts 294°
2026-05-06 18:13 65.52409 116.98917 31787 ft 421 kts 294°
2026-05-06 18:14 65.54953 116.86186 31787 ft 421 kts 294°
2026-05-06 18:14 65.57483 116.73523 31788 ft 421 kts 294°
2026-05-06 18:15 65.60018 116.60768 31790 ft 421 kts 294°
2026-05-06 18:15 65.62548 116.47962 31795 ft 421 kts 294°
2026-05-06 18:16 65.65066 116.35132 31793 ft 421 kts 293°
2026-05-06 18:16 65.67555 116.22369 31796 ft 421 kts 293°
2026-05-06 18:17 65.70019 116.09471 31795 ft 421 kts 293°
2026-05-06 18:17 65.72482 115.96534 31795 ft 422 kts 293°
2026-05-06 18:18 65.74953 115.83595 31797 ft 422 kts 293°
2026-05-06 18:18 65.77409 115.70707 31795 ft 422 kts 293°
2026-05-06 18:19 65.79873 115.57694 31796 ft 422 kts 293°
2026-05-06 18:19 65.82307 115.44644 31798 ft 422 kts 292°
2026-05-06 18:20 65.84721 115.31576 31795 ft 423 kts 292°
2026-05-06 18:20 65.87128 115.18554 31798 ft 423 kts 292°
2026-05-06 18:21 65.89548 115.05423 31796 ft 423 kts 292°
2026-05-06 18:21 65.91956 114.92274 31793 ft 423 kts 292°
2026-05-06 18:22 65.94348 114.79124 31796 ft 423 kts 292°
2026-05-06 18:22 65.96730 114.65943 31798 ft 423 kts 292°
2026-05-06 18:23 65.99102 114.52735 31800 ft 423 kts 292°
2026-05-06 18:23 66.01461 114.39507 31799 ft 423 kts 292°
2026-05-06 18:24 66.03811 114.26243 31800 ft 423 kts 292°
2026-05-06 18:24 66.06150 114.12951 31804 ft 423 kts 292°
2026-05-06 18:25 66.08463 113.99719 31790 ft 424 kts 292°
2026-05-06 18:25 66.10781 113.86369 31794 ft 424 kts 292°
2026-05-06 18:26 66.13090 113.72978 31798 ft 424 kts 291°
2026-05-06 18:26 66.15348 113.59531 31800 ft 424 kts 291°
2026-05-06 18:27 66.17568 113.46028 31805 ft 424 kts 291°
2026-05-06 18:27 66.19820 113.32525 31799 ft 424 kts 291°
2026-05-06 18:28 66.22082 113.19018 31800 ft 425 kts 291°
2026-05-06 18:28 66.24336 113.05489 31798 ft 425 kts 291°
2026-05-06 18:29 66.26580 112.91926 31794 ft 425 kts 291°
2026-05-06 18:29 66.28801 112.78409 31800 ft 425 kts 291°
2026-05-06 18:30 66.31016 112.64764 31795 ft 425 kts 290°
2026-05-06 18:30 66.33183 112.51089 31795 ft 425 kts 290°
2026-05-06 18:31 66.35356 112.37416 31795 ft 425 kts 291°
2026-05-06 18:31 66.37531 112.23740 31797 ft 425 kts 290°
2026-05-06 18:32 66.39689 112.10106 31795 ft 424 kts 290°
2026-05-06 18:32 66.42178 111.96735 31795 ft 426 kts 296°
2026-05-06 18:33 66.45022 111.83754 31796 ft 426 kts 297°
2026-05-06 18:33 66.47893 111.70777 31793 ft 426 kts 297°
2026-05-06 18:34 66.50737 111.57735 31789 ft 426 kts 297°
2026-05-06 18:34 66.53559 111.44646 31794 ft 426 kts 296°
2026-05-06 18:35 66.55894 111.33741 31792 ft 427 kts 296°
2026-05-06 18:35 66.59151 111.18438 31791 ft 427 kts 296°
2026-05-06 18:36 66.61487 111.07393 31780 ft 427 kts 296°
2026-05-06 18:36 66.64252 110.94246 31785 ft 427 kts 296°
2026-05-06 18:37 66.67023 110.80991 31782 ft 427 kts 296°
2026-05-06 18:37 66.69782 110.67712 31777 ft 427 kts 296°
2026-05-06 18:38 66.72531 110.54393 31777 ft 427 kts 296°
2026-05-06 18:38 66.75270 110.41041 31768 ft 427 kts 296°
2026-05-06 18:39 66.77998 110.27653 31768 ft 427 kts 296°
2026-05-06 18:40 66.81993 110.07428 31789 ft 427 kts 295°
2026-05-06 18:40 66.84640 109.93975 31773 ft 428 kts 295°
2026-05-06 18:41 66.87321 109.80458 31774 ft 428 kts 295°
2026-05-06 18:41 66.89989 109.66982 31769 ft 428 kts 295°
2026-05-06 18:42 66.92662 109.53401 31769 ft 428 kts 295°
2026-05-06 18:42 66.95328 109.39759 31768 ft 429 kts 295°
2026-05-06 18:43 66.97965 109.26179 31766 ft 429 kts 295°
2026-05-06 18:43 67.00605 109.12494 31765 ft 429 kts 295°
2026-05-06 18:44 67.03237 108.98756 31768 ft 429 kts 295°
2026-05-06 18:44 67.05838 108.85093 31767 ft 429 kts 295°
2026-05-06 18:45 67.08445 108.71306 31765 ft 429 kts 295°
2026-05-06 18:45 67.11040 108.57486 31766 ft 429 kts 295°
2026-05-06 18:46 67.13621 108.43654 31761 ft 429 kts 295°
2026-05-06 18:46 67.16160 108.29889 31766 ft 429 kts 294°
2026-05-06 18:47 67.18643 108.15910 31761 ft 429 kts 294°
2026-05-06 18:47 67.21150 108.01922 31763 ft 429 kts 294°
2026-05-06 18:48 67.23659 107.88037 31765 ft 429 kts 294°
2026-05-06 18:48 67.26183 107.74037 31766 ft 429 kts 294°
2026-05-06 18:49 67.28698 107.59992 31764 ft 430 kts 294°
2026-05-06 18:49 67.31200 107.45921 31764 ft 430 kts 294°
2026-05-06 18:50 67.33671 107.31924 31759 ft 430 kts 294°
2026-05-06 18:50 67.36148 107.17797 31760 ft 430 kts 294°
2026-05-06 18:51 67.38615 107.03624 31760 ft 430 kts 294°
2026-05-06 18:51 67.41065 106.89453 31758 ft 430 kts 294°
2026-05-06 18:52 67.43507 106.75221 31758 ft 430 kts 294°
2026-05-06 18:52 67.45919 106.61066 31757 ft 430 kts 294°
2026-05-06 18:53 67.48312 106.46764 31759 ft 430 kts 292°
2026-05-06 18:53 67.50599 106.32338 31757 ft 430 kts 292°
2026-05-06 18:54 67.52888 106.17983 31757 ft 430 kts 292°
2026-05-06 18:54 67.55206 106.03553 31757 ft 429 kts 292°
2026-05-06 18:55 67.57517 105.89127 31757 ft 429 kts 292°
2026-05-06 18:55 67.59816 105.74668 31758 ft 429 kts 292°
2026-05-06 18:56 67.62088 105.60274 31756 ft 429 kts 292°
2026-05-06 18:56 67.64365 105.45731 31754 ft 429 kts 292°
2026-05-06 18:57 67.66625 105.31188 31757 ft 429 kts 292°
2026-05-06 18:57 67.68855 105.16725 31756 ft 429 kts 292°
2026-05-06 18:58 67.71089 105.02129 31756 ft 429 kts 292°
2026-05-06 18:58 67.73307 104.87521 31754 ft 429 kts 292°
2026-05-06 18:59 67.75513 104.72882 31753 ft 429 kts 292°
2026-05-06 18:59 67.77706 104.58207 31751 ft 429 kts 291°
2026-05-06 19:00 67.79863 104.43476 31752 ft 429 kts 291°
2026-05-06 19:00 67.81932 104.28794 31751 ft 429 kts 291°
2026-05-06 19:01 67.84050 104.14004 31748 ft 429 kts 291°
2026-05-06 19:01 67.86181 103.99231 31749 ft 429 kts 291°
2026-05-06 19:02 67.88307 103.84441 31751 ft 429 kts 291°
2026-05-06 19:02 67.90417 103.69638 31753 ft 428 kts 291°
2026-05-06 19:03 67.92512 103.54817 31748 ft 428 kts 291°
2026-05-06 19:03 67.94578 103.40082 31763 ft 428 kts 291°
2026-05-06 19:04 67.96634 103.25210 31750 ft 428 kts 291°
2026-05-06 19:04 67.98705 103.10345 31748 ft 428 kts 291°
2026-05-06 19:05 68.00783 102.95493 31745 ft 427 kts 291°
2026-05-06 19:05 68.02844 102.80692 31745 ft 427 kts 291°
2026-05-06 19:06 68.04901 102.65803 31741 ft 427 kts 291°
2026-05-06 19:06 68.06944 102.50890 31741 ft 426 kts 291°
2026-05-06 19:07 68.08970 102.35979 31737 ft 426 kts 290°
2026-05-06 19:07 68.10979 102.21055 31735 ft 425 kts 290°
2026-05-06 19:08 68.12958 102.06237 31746 ft 424 kts 290°
2026-05-06 19:08 68.14937 101.91294 31728 ft 424 kts 290°
2026-05-06 19:09 68.16897 101.76363 31742 ft 424 kts 290°
2026-05-06 19:09 68.18845 101.61403 31727 ft 423 kts 290°
2026-05-06 19:10 68.20763 101.46541 31721 ft 422 kts 290°
2026-05-06 19:10 68.22679 101.31565 31724 ft 422 kts 290°
2026-05-06 19:11 68.24495 101.16481 31725 ft 422 kts 288°
2026-05-06 19:11 68.26237 101.01484 31721 ft 421 kts 289°
2026-05-06 19:12 68.28007 100.86433 31711 ft 420 kts 289°
2026-05-06 19:12 68.29781 100.71391 31723 ft 420 kts 289°
2026-05-06 19:13 68.31542 100.56362 31722 ft 419 kts 289°
2026-05-06 19:13 68.33291 100.41301 31715 ft 419 kts 288°
2026-05-06 19:14 68.35013 100.26327 31726 ft 419 kts 288°
2026-05-06 19:14 68.36729 100.11263 31716 ft 418 kts 288°
2026-05-06 19:15 68.38432 99.96179 31721 ft 418 kts 288°
2026-05-06 19:15 68.40119 99.81086 31728 ft 418 kts 288°
2026-05-06 19:16 68.41791 99.65990 31734 ft 417 kts 288°
2026-05-06 19:16 68.43448 99.50881 31734 ft 417 kts 288°
2026-05-06 19:17 68.45091 99.35755 31735 ft 416 kts 288°
2026-05-06 19:17 68.46718 99.20623 31730 ft 416 kts 287°
2026-05-06 19:18 68.48310 99.05598 31728 ft 416 kts 287°
2026-05-06 19:18 68.49819 98.90386 31726 ft 415 kts 287°
2026-05-06 19:19 68.51348 98.75206 31729 ft 415 kts 287°
2026-05-06 19:19 68.52902 98.60046 31731 ft 414 kts 287°
2026-05-06 19:20 68.54466 98.44900 31731 ft 414 kts 287°
2026-05-06 19:20 68.56023 98.29864 31729 ft 413 kts 287°
2026-05-06 19:21 68.57580 98.14732 31723 ft 413 kts 287°
2026-05-06 19:21 68.59123 97.99586 31723 ft 413 kts 287°
2026-05-06 19:22 68.60651 97.84435 31720 ft 412 kts 287°
2026-05-06 19:22 68.62153 97.69387 31721 ft 412 kts 286°
2026-05-06 19:23 68.63652 97.54207 31720 ft 412 kts 286°
2026-05-06 19:23 68.65136 97.39021 31720 ft 412 kts 286°
2026-05-06 19:24 68.66600 97.23883 31714 ft 412 kts 286°
2026-05-06 19:24 68.68055 97.08673 31718 ft 412 kts 286°
2026-05-06 19:25 68.69498 96.93429 31721 ft 412 kts 285°
2026-05-06 19:25 68.70928 96.78165 31714 ft 412 kts 285°
2026-05-06 19:26 68.72342 96.62890 31716 ft 412 kts 285°
2026-05-06 19:26 68.73734 96.47705 31714 ft 412 kts 285°
2026-05-06 19:27 68.75054 96.32316 31710 ft 412 kts 284°
2026-05-06 19:27 68.76134 96.19531 31714 ft 412 kts 284°
2026-05-06 19:28 68.77466 96.04164 31719 ft 412 kts 284°
2026-05-06 19:28 68.78811 95.88781 31712 ft 411 kts 284°
2026-05-06 19:29 68.80144 95.73406 31709 ft 412 kts 284°
2026-05-06 19:29 68.81467 95.57979 31704 ft 412 kts 284°
2026-05-06 19:30 68.82764 95.42664 31705 ft 412 kts 284°
2026-05-06 19:30 68.83415 95.34913 31908 ft 414 kts 284°
2026-05-06 19:30 68.84064 95.27136 32157 ft 415 kts 284°
2026-05-06 19:30 68.84712 95.19331 32412 ft 417 kts 284°
2026-05-06 19:31 68.85358 95.11491 32661 ft 418 kts 284°
2026-05-06 19:31 68.86002 95.03629 32899 ft 419 kts 283°
2026-05-06 19:31 68.87287 94.87794 33357 ft 422 kts 283°
2026-05-06 19:32 68.87929 94.79811 33590 ft 423 kts 283°
2026-05-06 19:32 68.88558 94.71939 33663 ft 425 kts 283°
2026-05-06 19:32 68.89826 94.55903 33679 ft 425 kts 283°
2026-05-06 19:33 68.91078 94.39863 33681 ft 425 kts 283°
2026-05-06 19:33 68.92316 94.23800 33679 ft 425 kts 283°
2026-05-06 19:34 68.93459 94.07670 33678 ft 424 kts 282°
2026-05-06 19:34 68.94581 93.91558 33680 ft 424 kts 282°
2026-05-06 19:35 68.95734 93.75505 33669 ft 423 kts 282°
2026-05-06 19:35 68.96891 93.59456 33670 ft 422 kts 282°
2026-05-06 19:36 68.98028 93.43522 33667 ft 422 kts 282°
2026-05-06 19:36 68.99156 93.27481 33666 ft 421 kts 282°
2026-05-06 19:37 69.00267 93.11447 33656 ft 421 kts 281°
2026-05-06 19:37 69.01357 92.95483 33656 ft 421 kts 281°
2026-05-06 19:38 69.02438 92.79418 33653 ft 421 kts 281°
2026-05-06 19:38 69.03503 92.63344 33651 ft 420 kts 281°
2026-05-06 19:39 69.04552 92.47262 33649 ft 420 kts 281°
2026-05-06 19:39 69.05587 92.31174 33646 ft 420 kts 281°
2026-05-06 19:40 69.06598 92.15185 33637 ft 420 kts 280°
2026-05-06 19:40 69.07601 91.99089 33635 ft 420 kts 280°
2026-05-06 19:41 69.08533 91.82931 33646 ft 420 kts 279°
2026-05-06 19:41 69.09421 91.66756 33632 ft 420 kts 279°
2026-05-06 19:42 69.10345 91.50658 33629 ft 420 kts 279°
2026-05-06 19:42 69.11284 91.34479 33624 ft 421 kts 279°
2026-05-06 19:43 69.12216 91.18236 33618 ft 421 kts 279°